Volver al catálogo

STARLINK-3346

ActivoComunicacionesVLEO
NORAD 50821·PAYLOAD·🇺🇸 United States

Lanzado Jan 6, 2022 desde Cape Canaveral Space Force Station

Loading…

Próximos Pases (próximas 24 horas)

TLE

ActualizadoSource: CelesTrak SupGP

Época: Sep 14, 2026, 20:41 UTC

1 50821C 22001U   26257.86229167  .00016894  00000+0  54326-3 0  2571
2 50821  53.1602  30.0504 0001146  77.0849  40.3808 15.31694215    15

Sigue STARLINK-3346 en tiempo real con AllMySat

Download on the App Store